[[{"header":{"parameterUnit":"m.s-1","parameterCategory":1,"la1":30.2991,"la2":30.254,"lo1":-89.0895,"lo2":-89.0444,"dy":0.0017,"dx":0.0017,"nx":28,"ny":28,"refTime":"2025-05-20T09:00:00:Z","depth":0,"parameterNumber":2,"parameterNumberName":"U-component_of_WINDS"},"data":[0,0,0,0,0,0,0,0,0,0,0,0,0,0,0,0,0,0,0,0,0,0,0,0,0,0,0,0,0,0,0,0,0,0,0,0,0,0,0,0,0,0,0,0,0,0,0,0,0,0,0,0,0,0,0,0,0,0,1.1579,1.1581,0,1.1736,1.1738,1.1739,1.1781,1.178,1.1779,1.1778,1.1943,1.1948,1.1953,0,0,0,0,0,0,0,0,0,0,0,0,0,1.1317,1.1322,1.1579,1.1581,1.1583,1.1736,1.1738,1.174,1.1781,1.178,1.1779,1.1778,1.1941,1.1948,1.1954,0,0,0,0,0,0,0,0,0,0,0,0,0,1.1448,1.1323,1.1578,1.1622,1.1627,1.1735,1.1738,1.174,1.1782,1.178,1.1779,1.1777,1.1939,1.1947,1.1955,1.2032,0,0,1.1979,1.1982,0,0,0,0,0,0,0,0,1.1441,1.1458,1.1613,1.1619,1.1625,1.1737,1.1706,1.1838,1.1782,1.1723,1.1778,1.1777,1.1876,1.1889,1.1922,1.204,1.2047,1.198,1.1984,1.1988,1.199,0,0,0,0,0,0,0,1.1432,1.1451,1.1641,1.1616,1.1623,1.1634,1.1651,1.1731,1.1806,1.1728,1.1731,1.1749,1.1879,1.1914,1.1926,1.2049,1.1979,1.1986,1.1991,1.1994,1.2237,1.2239,0,0,0,0,0,0,1.1415,1.1444,1.1636,1.1646,1.1527,1.164,1.1659,1.1703,1.1805,1.1819,1.175,1.1751,1.1901,1.1917,1.1932,1.2028,1.1988,1.1995,1.2,1.2236,1.2238,1.224,0,0,0,0,0,0,1.1409,1.1432,1.163,1.1546,1.1572,1.1646,1.1695,1.1707,1.1742,1.1822,1.1836,1.1772,1.1901,1.1921,1.2006,1.2034,1.1999,1.2006,1.2234,1.2236,1.2239,1.2221,0,0,0,0,0,0,1.1401,1.1429,1.1459,1.1546,1.1576,1.17,1.1697,1.1711,1.1755,1.1757,1.1846,1.1859,1.1901,1.1994,1.2014,1.2044,1.2012,1.2232,1.2235,1.2238,1.222,1.2223,1.2226,0,0,0,0,0,1.1392,1.1449,1.146,1.1483,1.1614,1.1702,1.1719,1.1765,1.1757,1.1787,1.1839,1.1857,1.2028,1.2003,1.2025,1.2059,1.223,1.2234,1.2238,1.2218,1.2222,1.2225,0,0,0,0,0,0,1.1364,1.1461,1.1475,1.1561,1.1623,1.1709,1.1749,1.1768,1.1834,1.1833,1.1889,1.1909,1.199,1.2033,1.2003,1.2138,1.2129,1.2138,1.2107,1.2111,1.2114,1.2102,1.2019,0,0,0,0,0,1.1368,1.143,1.1512,1.158,1.161,1.1674,1.1714,1.1744,1.181,1.1837,1.1895,1.196,1.2028,1.2072,1.214,1.2226,1.2246,1.226,1.2263,1.2265,1.2272,1.232,1.2327,1.2252,1.2252,1.2252,0,0,1.1377,1.1437,1.1473,1.1576,1.1627,1.1691,1.1696,1.1763,1.1811,1.1848,1.1931,1.1976,1.2052,1.2138,1.2179,1.2176,1.2297,1.227,1.2271,1.2277,1.2324,1.2331,1.2338,1.2255,1.2255,1.2254,0,0,1.1425,1.1477,1.1539,1.159,1.1667,1.1709,1.1724,1.1807,1.1837,1.1922,1.195,1.2009,1.2126,1.2178,1.2221,1.2288,1.2306,1.2308,1.2324,1.237,1.2376,1.2381,1.2404,1.2412,1.2315,1.2315,1.2315,0,1.1426,1.1522,1.1569,1.1634,1.1678,1.1713,1.1776,1.1824,1.192,1.195,1.1946,1.2092,1.2147,1.2244,1.226,1.2294,1.2313,1.2298,1.2371,1.2377,1.2383,1.2405,1.2413,1.2314,1.2314,1.2315,1.2315,0,1.1519,1.1585,1.1627,1.1716,1.1765,1.1829,1.1886,1.193,1.1956,1.1998,1.2084,1.2149,1.223,1.2256,1.2283,1.2358,1.2354,1.236,1.2352,1.2388,1.241,1.2419,1.2314,1.2314,1.2314,1.2314,0,0,1.1554,1.1668,1.1682,1.1722,1.181,1.1862,1.1928,1.2006,1.2042,1.2107,1.2164,1.2261,1.2267,1.2315,1.2347,1.2388,1.2435,1.2389,1.2392,1.2394,1.2521,1.2515,1.2524,1.2448,1.245,1.2452,1.2514,0,1.1612,1.1729,1.1773,1.1869,1.193,1.1964,1.2022,1.2082,1.2123,1.2182,1.2229,1.2296,1.2299,1.2328,1.2369,1.242,1.2461,1.2417,1.2502,1.2504,1.248,1.2536,1.253,1.2586,1.2523,1.2525,1.2526,0,1.1695,1.1759,1.1861,1.1939,1.1967,1.2017,1.2091,1.2147,1.2216,1.2243,1.2296,1.2326,1.2396,1.2384,1.2483,1.2451,1.2489,1.2519,1.2522,1.2531,1.2516,1.2545,1.2605,1.2613,1.254,1.2539,1.2538,0,1.1708,1.182,1.1895,1.1929,1.2023,1.2058,1.2099,1.2166,1.2209,1.2275,1.2304,1.2377,1.2417,1.2473,1.2522,1.2509,1.2616,1.2608,1.264,1.2639,1.2661,1.2658,1.2726,1.2686,1.2686,1.2686,1.2686,0,1.1768,1.1828,1.1902,1.1948,1.2017,1.2067,1.2134,1.2178,1.2237,1.2293,1.2328,1.2379,1.2441,1.2501,1.254,1.2615,1.2633,1.2657,1.2667,1.2654,1.265,1.2678,1.2675,1.2688,1.2688,1.2687,1.2687,0,1.1794,1.1846,1.1929,1.2011,1.2033,1.208,1.215,1.2197,1.2239,1.2309,1.2329,1.2396,1.2468,1.2522,1.2617,1.2643,1.2722,1.2733,1.2698,1.2703,1.2731,1.2727,1.2818,1.2832,1.2784,1.2784,1.2785,0,1.1828,1.1875,1.1961,1.2,1.204,1.2103,1.2147,1.2198,1.2243,1.2324,1.236,1.2435,1.2496,1.261,1.2668,1.274,1.2752,1.2779,1.2763,1.2748,1.2751,1.2747,1.2752,1.2781,1.2781,1.2781,1.2782,0,1.1882,1.1905,1.1966,1.2036,1.2088,1.2146,1.2205,1.2235,1.2297,1.2346,1.2419,1.2467,1.2562,1.2635,1.2712,1.2756,1.2779,1.2786,1.2797,1.2784,1.2761,1.2772,1.2702,1.2784,1.2783,1.2783,1.2783,1.2783,1.1912,1.1955,1.2022,1.2089,1.2138,1.2192,1.2239,1.2287,1.2349,1.2429,1.2456,1.2531,1.2599,1.2705,1.2749,1.281,1.281,1.2826,1.283,1.2833,1.2831,1.2752,1.2824,1.2824,1.2824,1.2824,1.2824,0,1.1967,1.2011,1.2072,1.2153,1.2205,1.2222,1.2288,1.2331,1.2396,1.2457,1.2516,1.26,1.2671,1.2734,1.2808,1.2844,1.2856,1.2862,1.2859,1.2868,1.2827,1.281,1.285,1.285,1.285,1.285,1.285,1.285,1.2001,1.2074,1.2105,1.2203,1.2248,1.232,1.2356,1.2406,1.2455,1.2546,1.2604,1.2645,1.2707,1.2785,1.2851,1.2868,1.2893,1.2895,1.2915,1.2875,1.2872,1.2868,1.2852,1.2901,1.2901,1.2951,1.2951,1.2951]},{"header":{"parameterUnit":"m.s-1","parameterCategory":1,"la1":30.2991,"la2":30.254,"lo1":-89.0895,"lo2":-89.0444,"dy":0.0017,"dx":0.0017,"nx":28,"ny":28,"refTime":"2025-05-20T09:00:00:Z","depth":0,"parameterNumber":3,"parameterNumberName":"V-component_of_WINDS"},"data":[0,0,0,0,0,0,0,0,0,0,0,0,0,0,0,0,0,0,0,0,0,0,0,0,0,0,0,0,0,0,0,0,0,0,0,0,0,0,0,0,0,0,0,0,0,0,0,0,0,0,0,0,0,0,0,0,0,0,2.8255,2.8255,0,2.8235,2.8234,2.8234,2.8209,2.8209,2.8209,2.8208,2.8186,2.8186,2.8186,0,0,0,0,0,0,0,0,0,0,0,0,0,2.8272,2.8272,2.8255,2.8255,2.8255,2.8235,2.8234,2.8234,2.8209,2.8209,2.8209,2.8208,2.8187,2.8186,2.8186,0,0,0,0,0,0,0,0,0,0,0,0,0,2.8259,2.8272,2.8255,2.824,2.8238,2.8235,2.8234,2.8234,2.821,2.8209,2.8208,2.8208,2.8187,2.8186,2.8186,2.8195,0,0,2.8185,2.8185,0,0,0,0,0,0,0,0,2.826,2.8259,2.8243,2.8241,2.8239,2.8224,2.8232,2.8221,2.821,2.8221,2.8208,2.8208,2.8199,2.8198,2.8195,2.8194,2.8193,2.8185,2.8185,2.8185,2.8184,0,0,0,0,0,0,0,2.8261,2.826,2.8247,2.8242,2.824,2.8234,2.8231,2.823,2.8213,2.822,2.8218,2.8216,2.8198,2.8196,2.8195,2.8193,2.8185,2.8185,2.8184,2.8184,2.8197,2.8198,0,0,0,0,0,0,2.8264,2.826,2.8248,2.8246,2.8249,2.8234,2.8231,2.823,2.8213,2.821,2.8216,2.8215,2.8197,2.8195,2.8194,2.8202,2.8185,2.8184,2.8184,2.8196,2.8197,2.8198,0,0,0,0,0,0,2.8265,2.8264,2.8249,2.8253,2.8251,2.8234,2.8233,2.8229,2.8227,2.8211,2.8208,2.8217,2.8196,2.8194,2.8195,2.8201,2.8184,2.8184,2.8196,2.8197,2.8197,2.822,0,0,0,0,0,0,2.8265,2.8264,2.8268,2.8253,2.825,2.825,2.8233,2.8229,2.8226,2.8224,2.821,2.8207,2.8195,2.8195,2.8194,2.82,2.8183,2.8195,2.8196,2.8197,2.8219,2.8222,2.8224,0,0,0,0,0,2.8266,2.8275,2.8268,2.8266,2.8255,2.8251,2.8249,2.8235,2.8227,2.823,2.822,2.8208,2.8201,2.8196,2.8194,2.82,2.8195,2.8196,2.8197,2.8218,2.8221,2.8224,0,0,0,0,0,0,2.829,2.8273,2.8265,2.8269,2.8262,2.8247,2.825,2.824,2.8234,2.8232,2.8215,2.8213,2.8215,2.8208,2.8202,2.8208,2.8196,2.8197,2.8212,2.8215,2.8218,2.8219,2.8183,0,0,0,0,0,2.8296,2.8295,2.828,2.8285,2.8282,2.8267,2.8265,2.8255,2.8246,2.8243,2.8232,2.8224,2.822,2.8217,2.8213,2.8218,2.8214,2.8222,2.8224,2.8227,2.8227,2.8228,2.8231,2.8202,2.8202,2.8202,0,0,2.8308,2.8299,2.8299,2.829,2.8283,2.8281,2.8264,2.8264,2.8262,2.8242,2.8242,2.8234,2.8224,2.8226,2.8227,2.8221,2.8235,2.8228,2.823,2.8229,2.823,2.8232,2.8235,2.8203,2.8202,2.8202,0,0,2.8329,2.8322,2.8325,2.8318,2.8308,2.8298,2.8299,2.8285,2.8279,2.8279,2.8264,2.8261,2.8255,2.8248,2.8243,2.8261,2.8249,2.826,2.8274,2.8275,2.8277,2.8279,2.8284,2.8286,2.8261,2.8261,2.8261,0,2.8345,2.8342,2.8328,2.8328,2.8324,2.8307,2.8309,2.8303,2.8292,2.8289,2.8282,2.8273,2.8265,2.8265,2.8269,2.8267,2.8266,2.8261,2.8278,2.828,2.8281,2.8285,2.8287,2.8262,2.8262,2.8262,2.8262,0,2.8362,2.836,2.8364,2.8353,2.8349,2.8351,2.8336,2.8334,2.8325,2.8315,2.8314,2.8304,2.8296,2.8296,2.8287,2.8294,2.829,2.8281,2.8268,2.8285,2.8289,2.8291,2.8264,2.8264,2.8263,2.8263,0,0,2.8396,2.8378,2.8379,2.8373,2.8361,2.8359,2.8359,2.8352,2.835,2.8343,2.8341,2.8336,2.8327,2.8322,2.8312,2.8313,2.8325,2.8303,2.8302,2.8306,2.8331,2.8337,2.834,2.8318,2.8318,2.8319,2.8332,0,2.8413,2.8412,2.84,2.8402,2.84,2.8383,2.8383,2.8375,2.8366,2.8362,2.8353,2.8348,2.8338,2.8334,2.8335,2.8324,2.833,2.8323,2.8316,2.8316,2.8317,2.8342,2.8349,2.8361,2.8333,2.8334,2.8334,0,2.8433,2.8427,2.8429,2.8415,2.8414,2.8414,2.8406,2.8403,2.8393,2.8386,2.838,2.8369,2.8367,2.8356,2.8353,2.8348,2.8345,2.8339,2.8339,2.8337,2.8325,2.8339,2.8365,2.8367,2.8336,2.8336,2.8336,0,2.8456,2.8448,2.8448,2.8444,2.8429,2.8429,2.8422,2.8412,2.8408,2.8401,2.8398,2.8391,2.8387,2.8381,2.8367,2.8361,2.8365,2.8353,2.8358,2.8359,2.8359,2.8359,2.8384,2.8359,2.8359,2.8359,2.8359,0,2.8475,2.8477,2.8458,2.8458,2.8459,2.8444,2.8446,2.8438,2.8429,2.8426,2.8412,2.841,2.8392,2.8388,2.8377,2.8375,2.8374,2.8368,2.8365,2.8368,2.8369,2.8365,2.8363,2.8359,2.8359,2.8359,2.8359,0,2.85,2.8488,2.8487,2.8472,2.8469,2.847,2.8457,2.8456,2.8447,2.8444,2.8442,2.8427,2.8421,2.8407,2.8397,2.839,2.839,2.8386,2.8394,2.8391,2.8397,2.8396,2.8419,2.842,2.8396,2.8396,2.8396,0,2.8513,2.8514,2.8499,2.8497,2.8491,2.8487,2.8483,2.8469,2.8465,2.8453,2.8453,2.8446,2.844,2.8431,2.8418,2.8411,2.8405,2.8413,2.8403,2.8407,2.8403,2.8403,2.8402,2.8415,2.8415,2.8416,2.8416,0,2.8536,2.8529,2.8524,2.8517,2.8513,2.8506,2.8499,2.8498,2.8481,2.8478,2.8472,2.8467,2.8457,2.8449,2.844,2.8432,2.8421,2.8419,2.842,2.8423,2.8427,2.8423,2.8398,2.8419,2.8418,2.8418,2.8418,2.8418,2.8554,2.8553,2.8543,2.8538,2.8531,2.8524,2.8522,2.8512,2.8507,2.8498,2.849,2.8484,2.8474,2.8459,2.8453,2.8447,2.8442,2.8443,2.8443,2.8443,2.8444,2.8429,2.8446,2.8446,2.8446,2.8446,2.8446,0,2.8574,2.8567,2.8563,2.8553,2.8548,2.8539,2.8531,2.8527,2.8523,2.8514,2.8508,2.85,2.8493,2.848,2.8472,2.847,2.8464,2.8468,2.8467,2.8465,2.845,2.845,2.8472,2.8472,2.8472,2.8472,2.8472,2.8472,2.8585,2.8583,2.8576,2.8571,2.8563,2.8558,2.8553,2.8547,2.854,2.8532,2.8526,2.8518,2.8507,2.8498,2.8491,2.8487,2.8484,2.8489,2.8483,2.8469,2.8467,2.8464,2.8464,2.8489,2.8489,2.8498,2.8499,2.8499]}]]